GW6539 Weather Reports


Display with metric or nautical units.
time (UTC)temp
F
wind
direction
speed
MPH
gust
MPH
rain 1hr
in
rain 24hr
in
rain mn
in
humidity
%
barometer
mb
20260509150559 80 118 8.0 11.0 0.00 0.01 0.01 88 1011.8
20260509150058 80 113 8.0 11.0 0.00 0.01 0.01 89 1011.8
20260509145553 80 121 9.0 13.0 0.00 0.01 0.01 89 1011.8
20260509145049 80 109 8.0 12.0 0.00 0.01 0.01 89 1011.8
20260509144546 80 119 5.0 6.0 0.00 0.01 0.01 89 1012.2
20260509144043 80 109 5.0 8.0 0.00 0.01 0.01 89 1012.2
20260509143540 80 121 7.0 10.0 0.00 0.01 0.01 89 1012.2
20260509143038 80 114 8.0 13.0 0.00 0.01 0.01 90 1012.5
20260509142533 80 100 6.0 9.0 0.00 0.01 0.01 89 1012.5
20260509142029 80 94 8.0 12.0 0.00 0.01 0.01 88 1012.5
20260509141525 80 115 11.0 16.0 0.00 0.01 0.01 88 1012.5
20260509141022 80 113 8.0 12.0 0.00 0.00 0.00 88 1012.5
20260509140519 80 95 11.0 17.0 0.00 0.00 0.00 88 1012.5
20260509140017 80 115 11.0 15.0 0.00 2.45 2.45 88 1012.8
20260509135514 80 102 12.0 21.0 0.00 2.45 2.45 88 1012.5
20260509135011 80 103 10.0 16.0 0.00 2.45 2.45 88 1012.8
20260509134508 80 109 10.0 15.0 0.00 2.45 2.45 87 1012.8
20260509134006 80 119 9.0 13.0 0.00 2.45 2.45 87 1012.8
20260509133502 80 111 7.0 11.0 0.00 2.45 2.45 88 1012.8
20260509133000 80 109 9.0 14.0 0.00 2.45 2.45 89 1012.5
20260509132459 80 91 11.0 15.0 0.00 2.45 2.45 88 1012.5
20260509131955 80 107 10.0 18.0 0.00 2.45 2.45 88 1012.5
20260509131452 80 85 9.0 13.0 0.00 2.45 2.45 87 1012.5
20260509130949 80 92 12.0 15.0 0.00 2.45 2.45 88 1012.8
20260509130444 80 96 9.0 12.0 0.00 2.45 2.45 87 1012.5
20260509125942 80 105 11.0 16.0 0.00 2.45 2.45 87 1012.5
20260509125438 80 105 5.0 9.0 0.00 2.45 2.45 87 1012.5
20260509124934 80 116 9.0 13.0 0.00 2.45 2.45 88 1012.2
20260509124431 80 122 7.0 11.0 0.00 2.45 2.45 88 1012.2
20260509123929 80 109 8.0 15.0 0.00 2.45 2.45 88 1012.2
20260509123426 79 109 9.0 13.0 0.00 2.45 2.45 88 1012.2
20260509122922 79 111 9.0 11.0 0.00 2.45 2.45 88 1012.2
20260509122419 79 107 9.0 15.0 0.00 2.45 2.45 88 1012.2
20260509121915 79 103 12.0 19.0 0.00 2.45 2.45 88 1012.2
20260509121413 79 105 12.0 18.0 0.00 2.45 2.45 88 1012.2
20260509120911 79 124 8.0 13.0 0.00 2.45 2.45 89 1012.5
20260509120408 79 103 8.0 11.0 0.00 2.45 2.45 88 1012.2
20260509115906 80 99 13.0 18.0 0.00 2.45 2.45 89 1011.8
20260509115403 80 115 9.0 12.0 0.00 2.45 2.45 89 1012.2
20260509114901 80 108 11.0 16.0 0.00 2.45 2.45 88 1011.8
20260509114359 80 106 12.0 17.0 0.00 2.45 2.45 89 1011.8
20260509113858 80 117 8.0 12.0 0.00 2.45 2.45 89 1011.8
20260509113355 80 100 10.0 14.0 0.00 2.45 2.45 89 1011.8
20260509112851 79 113 9.0 14.0 0.00 2.45 2.45 89 1011.8
20260509112348 79 100 9.0 14.0 0.00 2.45 2.45 89 1011.5
20260509111846 79 92 11.0 18.0 0.00 2.45 2.45 89 1011.5
20260509111342 80 110 9.0 12.0 0.00 2.45 2.45 90 1011.8
20260509110840 80 113 11.0 20.0 0.00 2.45 2.45 90 1011.8
20260509110336 80 112 9.0 11.0 0.00 2.44 2.44 89 1011.8
20260509105835 80 109 13.0 17.0 0.00 2.44 2.44 89 1011.8
20260509105332 79 119 9.0 16.0 0.00 2.44 2.44 88 1011.8
20260509104829 79 118 9.0 14.0 0.00 2.44 2.44 89 1011.8
20260509104325 79 112 9.0 14.0 0.00 2.44 2.44 89 1011.8
20260509103823 79 118 12.0 17.0 0.00 2.44 2.44 89 1011.5
20260509103320 80 120 8.0 12.0 0.00 2.44 2.44 89 1011.5
20260509102820 79 111 9.0 14.0 0.00 2.44 2.44 89 1011.5
20260509102316 79 115 12.0 19.0 0.00 2.44 2.44 88 1011.5
20260509101812 79 112 10.0 17.0 0.00 2.44 2.44 89 1011.5
20260509101308 79 123 12.0 18.0 0.00 2.44 2.44 89 1011.5
20260509100806 79 111 15.0 23.0 0.00 2.44 2.44 90 1011.1
20260509100303 79 119 16.0 21.0 0.00 2.44 2.44 90 1011.1
20260509095759 79 126 14.0 21.0 0.00 2.44 2.44 90 1011.1
20260509095257 79 124 13.0 21.0 0.00 2.44 2.44 90 1011.1
20260509094754 79 109 15.0 23.0 0.00 2.44 2.44 90 1011.1
20260509094250 79 112 15.0 20.0 0.00 2.44 2.44 90 1011.1
20260509093748 79 125 14.0 25.0 0.00 2.44 2.44 90 1011.1
20260509093245 79 119 14.0 22.0 0.00 2.44 2.44 90 1010.8
20260509092744 79 117 13.0 23.0 0.00 2.44 2.44 90 1010.8
20260509092241 78 115 13.0 26.0 0.00 2.44 2.44 90 1010.8
20260509091739 78 120 17.0 27.0 0.00 2.44 2.44 90 1010.5
20260509091235 78 113 10.0 15.0 0.00 2.44 2.44 91 1010.8
20260509090733 78 112 9.0 14.0 0.47 2.43 2.43 90 1010.8
20260509090230 78 103 12.0 17.0 0.00 2.43 2.43 90 1010.8
20260509085728 78 119 13.0 19.0 0.47 2.42 2.42 90 1010.8
20260509085225 78 128 10.0 15.0 0.00 2.42 2.42 90 1010.5
20260509084721 78 121 11.0 21.0 0.00 2.42 2.42 91 1010.5
20260509084218 78 120 17.0 24.0 0.00 2.42 2.42 91 1010.5
20260509083716 78 130 13.0 19.0 0.00 2.42 2.42 91 1010.5
20260509083212 78 125 16.0 24.0 0.00 2.42 2.42 91 1010.5
20260509082709 79 125 11.0 17.0 0.00 2.41 2.41 91 1010.1
20260509082206 79 104 12.0 16.0 0.00 2.39 2.39 92 1010.1
20260509081702 78 121 12.0 19.0 0.00 2.38 2.38 92 1010.1
20260509081200 78 127 11.0 15.0 0.00 2.36 2.36 92 1009.8
20260509080658 78 122 14.0 20.0 0.47 2.32 2.32 92 1009.8
20260509080155 78 121 11.0 15.0 0.94 2.23 2.23 92 1009.8
20260509075654 78 127 14.0 22.0 0.00 2.19 2.19 92 1009.8
20260509075151 78 129 12.0 19.0 0.00 2.17 2.17 91 1009.8
20260509074648 78 131 13.0 22.0 0.00 2.16 2.16 91 1009.4
20260509074144 78 132 13.0 20.0 0.47 2.15 2.15 91 1009.4
20260509073641 79 127 16.0 25.0 0.00 2.15 2.15 91 1009.8
20260509073137 79 115 12.0 22.0 0.00 2.14 2.14 92 1009.4
20260509072634 79 132 9.0 13.0 0.00 2.13 2.13 92 1009.8
20260509072131 79 119 10.0 15.0 0.00 2.12 2.12 92 1009.4
20260509071628 79 118 11.0 18.0 0.00 2.11 2.11 93 1009.4
20260509071125 78 120 11.0 17.0 0.47 2.10 2.10 92 1009.4
20260509070622 78 125 8.0 13.0 0.00 2.09 2.09 92 1009.4
20260509070118 78 108 13.0 18.0 0.94 2.03 2.03 92 1009.4
20260509065614 78 102 15.0 25.0 0.00 1.99 1.99 92 1009.1
20260509065110 78 104 10.0 16.0 0.47 1.94 1.94 92 1009.1
20260509064608 78 126 13.0 23.0 0.94 1.84 1.84 92 1009.4
20260509064106 78 125 12.0 18.0 0.47 1.79 1.79 92 1009.4
20260509063602 78 146 13.0 23.0 0.47 1.74 1.74 92 1009.4
20260509063059 78 128 13.0 22.0 0.47 1.69 1.69 92 1009.4
20260509062556 77 126 10.0 17.0 0.94 1.64 1.64 92 1009.4
20260509062053 78 133 17.0 25.0 1.42 1.56 1.56 92 1009.4
20260509061550 78 129 15.0 27.0 2.36 1.36 1.36 91 1009.4
20260509061047 78 123 13.0 21.0 1.89 1.22 1.22 91 1009.1
20260509060545 78 131 15.0 22.0 1.42 1.13 1.13 91 1009.1
20260509060040 78 142 12.0 17.0 1.89 1.02 1.02 91 1008.8
20260509055536 78 110 12.0 17.0 0.00 0.94 0.94 91 1008.8
20260509055032 78 106 14.0 20.0 0.47 0.90 0.90 91 1008.8
20260509054529 78 110 17.0 23.0 0.47 0.85 0.85 91 1008.8
20260509054027 78 118 17.0 30.0 0.47 0.80 0.80 91 1008.8
20260509053525 79 116 15.0 25.0 0.00 0.79 0.79 91 1008.8
20260509053022 79 117 14.0 22.0 0.94 0.74 0.74 91 1008.8
20260509052519 79 117 13.0 21.0 0.00 0.71 0.71 91 1008.8
20260509052017 79 119 14.0 23.0 0.47 0.66 0.66 90 1008.8
20260509051515 79 105 17.0 25.0 0.94 0.60 0.60 90 1008.8
20260509051012 79 110 15.0 22.0 0.00 0.57 0.57 89 1008.8
20260509050508 79 113 13.0 18.0 0.00 0.55 0.55 90 1008.8
20260509050005 79 117 14.0 20.0 0.00 0.55 0.55 90 1008.3
20260509045502 79 109 16.0 27.0 0.00 0.55 0.55 90 1008.3
20260509044959 79 102 14.0 21.0 0.00 0.55 0.55 90 1008.8
20260509044457 79 114 9.0 13.0 0.00 0.53 0.53 90 1009.1
20260509043954 80 124 13.0 19.0 0.47 0.50 0.50 89 1009.1
20260509043449 80 119 11.0 15.0 0.00 0.48 0.48 89 1009.1
20260509042945 80 127 10.0 16.0 0.00 0.48 0.48 89 1008.8
20260509042443 80 120 17.0 27.0 1.42 0.41 0.41 89 1009.1
20260509041938 81 115 14.0 22.0 0.00 0.40 0.40 88 1008.8
20260509041435 81 110 11.0 19.0 0.00 0.40 0.40 88 1008.8
20260509040934 81 111 18.0 23.0 0.47 0.38 0.38 88 1009.1
20260509040432 81 103 10.0 15.0 0.00 0.37 0.37 88 1009.1
20260509035928 80 112 11.0 17.0 0.00 0.36 0.36 88 1009.4
20260509035425 80 135 9.0 14.0 0.00 0.35 0.35 87 1009.4
20260509034921 81 115 14.0 19.0 0.00 0.35 0.35 86 1009.4
20260509034419 81 110 18.0 28.0 0.00 0.35 0.35 87 1009.4
20260509033916 80 118 18.0 27.0 0.00 0.35 0.35 88 1009.4
20260509033413 80 102 12.0 15.0 0.00 0.35 0.35 88 1009.4
20260509032909 79 95 9.0 14.0 0.00 0.35 0.35 88 1009.4
20260509032407 80 96 14.0 19.0 0.00 0.35 0.35 88 1009.8
20260509031905 80 96 13.0 21.0 0.00 0.35 0.35 88 1009.8
20260509031402 80 104 15.0 20.0 0.00 0.35 0.35 88 1009.8
20260509030859 80 99 14.0 19.0 0.00 0.35 0.35 88 1009.8
20260509030357 80 95 12.0 16.0 0.00 0.35 0.35 88 1009.8
20260509025854 80 99 16.0 31.0 0.00 0.35 0.35 88 1009.4
20260509025349 80 110 12.0 22.0 0.00 0.35 0.35 88 1009.8
20260509024845 80 115 12.0 15.0 0.00 0.35 0.35 88 1010.1
20260509024341 80 112 11.0 17.0 0.00 0.35 0.35 89 1010.1
20260509023838 80 111 10.0 14.0 0.00 0.35 0.35 89 1010.1
20260509023336 80 112 14.0 19.0 0.00 0.35 0.35 89 1010.5
20260509022832 80 114 16.0 23.0 0.47 0.34 0.34 89 1010.1
20260509022330 80 110 18.0 25.0 0.00 0.34 0.34 89 1010.1
20260509021826 80 111 15.0 20.0 0.00 0.34 0.34 89 1010.1
20260509021323 80 113 13.0 21.0 0.00 0.34 0.34 90 1010.5
20260509020821 80 117 12.0 20.0 0.00 0.34 0.34 89 1010.1
20260509020319 80 118 18.0 29.0 0.00 0.32 0.32 89 1010.5
20260509015816 80 116 12.0 17.0 0.00 0.31 0.31 88 1010.5
20260509015314 81 120 17.0 31.0 0.00 0.31 0.31 87 1010.5
20260509014811 81 124 14.0 27.0 0.00 0.31 0.31 86 1010.5
20260509014308 81 120 15.0 21.0 0.00 0.31 0.31 86 1010.5
20260509013804 81 107 15.0 23.0 0.00 0.31 0.31 87 1010.5
20260509013301 81 109 12.0 16.0 0.00 0.31 0.31 87 1010.5
20260509012757 80 117 16.0 24.0 0.00 0.31 0.31 88 1010.5
20260509012254 80 110 9.0 13.0 0.00 0.31 0.31 88 1010.5
20260509011751 80 112 14.0 18.0 0.00 0.31 0.31 87 1010.8
20260509011248 80 112 15.0 20.0 0.00 0.31 0.31 87 1010.5
20260509010746 80 109 13.0 19.0 0.00 0.31 0.31 87 1010.5
20260509010242 80 114 17.0 26.0 0.00 0.31 0.31 87 1010.5
20260509005741 80 124 10.0 14.0 0.00 0.31 0.31 87 1010.5
20260509005238 80 127 11.0 16.0 0.00 0.31 0.31 88 1010.5
20260509004737 80 110 13.0 20.0 0.00 0.31 0.31 88 1010.5
20260509004235 80 108 12.0 17.0 0.00 0.31 0.31 88 1010.5
20260509003733 80 112 15.0 25.0 0.00 0.31 0.31 88 1010.5
20260509003230 80 107 14.0 21.0 0.00 0.31 0.31 88 1010.5
20260509002727 81 110 18.0 27.0 0.00 0.31 0.31 88 1010.8
20260509002225 81 119 9.0 17.0 0.00 0.31 0.31 88 1010.8
20260509001722 81 101 11.0 17.0 0.00 0.31 0.31 88 1010.8
20260509001218 81 106 10.0 17.0 0.00 0.31 0.31 87 1010.8
20260509000716 81 119 13.0 21.0 0.00 0.31 0.31 85 1010.8
20260509000213 80 124 14.0 22.0 0.00 0.31 0.31 85 1010.8
20260508235710 80 127 16.0 20.0 0.00 0.30 0.30 87 1010.5
20260508235206 80 116 16.0 25.0 0.00 0.30 0.30 88 1010.5
20260508234704 80 126 12.0 18.0 0.00 0.30 0.30 88 1010.5
20260508234200 80 137 8.0 14.0 0.00 0.30 0.30 88 1010.5
20260508233700 80 130 10.0 16.0 0.00 0.29 0.29 88 1010.5
20260508233157 80 129 15.0 20.0 0.00 0.29 0.29 89 1010.5
20260508232654 80 123 11.0 17.0 0.00 0.29 0.29 89 1010.5
20260508232150 80 124 12.0 17.0 0.00 0.29 0.29 89 1010.5
20260508231649 80 125 13.0 21.0 0.00 0.29 0.29 89 1010.1
20260508231145 79 130 9.0 13.0 0.00 0.29 0.29 89 1010.1
20260508230642 79 148 9.0 15.0 0.00 0.29 0.29 89 1009.8
20260508230138 79 142 9.0 17.0 0.00 0.29 0.29 89 1009.8
20260508225637 79 147 13.0 17.0 0.00 0.29 0.29 88 1010.1
20260508225132 79 143 12.0 17.0 0.00 0.29 0.29 88 1010.1
20260508224630 79 142 11.0 22.0 0.47 0.28 0.28 89 1010.1
20260508224128 80 141 15.0 24.0 0.00 0.28 0.28 90 1010.1
20260508223625 79 135 7.0 13.0 0.00 0.28 0.28 90 1010.1
20260508223122 79 129 11.0 15.0 0.00 0.28 0.28 90 1009.8
20260508222620 80 128 11.0 18.0 0.00 0.28 0.28 90 1009.8
20260508222116 80 124 14.0 19.0 0.00 0.28 0.28 89 1009.8
20260508221613 79 132 11.0 17.0 0.00 0.27 0.27 89 1009.4
20260508221109 79 129 12.0 21.0 0.00 0.27 0.27 89 1009.8
20260508220605 79 138 11.0 18.0 0.00 0.27 0.27 89 1009.8
20260508215559 79 132 13.0 24.0 0.00 0.26 0.26 89 1009.4
20260508215055 79 120 12.0 16.0 0.00 0.26 0.26 89 1009.4
20260508214553 78 132 10.0 15.0 0.00 0.26 0.26 89 1009.4
20260508214049 78 131 12.0 24.0 0.00 0.26 0.26 90 1009.4
20260508213546 78 131 13.0 17.0 0.00 0.26 0.26 90 1009.4
20260508213042 78 129 12.0 19.0 0.00 0.26 0.26 90 1009.1
20260508212539 78 133 16.0 25.0 0.00 0.26 0.26 91 1009.1
20260508212035 79 123 9.0 13.0 0.00 0.26 0.26 91 1008.8
20260508211531 78 132 13.0 23.0 0.00 0.26 0.26 91 1008.8
20260508211028 78 129 16.0 25.0 0.00 0.26 0.26 91 1008.8
20260508210524 78 130 16.0 25.0 0.00 0.26 0.26 90 1008.8
20260508210022 78 137 15.0 26.0 0.00 0.26 0.26 90 1008.3
20260508205518 78 131 17.0 26.0 0.00 0.26 0.26 90 1008.3
20260508205014 78 125 16.0 24.0 0.00 0.26 0.26 90 1008.0
20260508204512 78 125 17.0 29.0 0.00 0.26 0.26 90 1008.0
20260508204007 78 135 14.0 26.0 0.00 0.25 0.25 90 1008.3
20260508203503 78 123 15.0 29.0 0.00 0.24 0.24 91 1008.3
20260508202959 78 121 18.0 26.0 0.47 0.22 0.22 91 1008.0
20260508202456 78 118 14.0 20.0 0.00 0.20 0.20 91 1008.0
20260508201953 78 123 17.0 24.0 0.47 0.17 0.17 91 1008.0
20260508201450 78 113 13.0 20.0 0.47 0.15 0.15 91 1008.0
20260508200947 78 124 20.0 30.0 0.47 0.12 0.12 90 1008.0
20260508200444 78 119 20.0 28.0 0.47 0.07 0.07 90 1007.7
20260508195938 79 123 18.0 34.0 0.00 0.05 0.05 89 1007.7
20260508195437 79 111 19.0 30.0 0.00 0.03 0.03 88 1007.7
20260508194932 80 123 19.0 28.0 0.00 0.03 0.03 88 1007.7
20260508194430 80 118 17.0 27.0 0.00 0.03 0.03 87 1007.3
20260508193926 80 111 17.0 32.0 0.00 0.03 0.03 86 1007.3
20260508193424 80 115 15.0 22.0 0.00 0.03 0.03 85 1007.3
20260508192919 80 100 20.0 28.0 0.00 0.03 0.03 85 1007.0
20260508192417 80 98 17.0 30.0 0.00 0.03 0.03 85 1007.0
20260508191914 80 105 16.0 23.0 0.00 0.03 0.03 84 1007.0
20260508191411 81 116 25.0 33.0 0.00 0.03 0.03 84 1007.3
20260508190908 81 111 19.0 29.0 0.00 0.03 0.03 84 1007.3
20260508190405 81 107 19.0 26.0 0.00 0.03 0.03 85 1007.3
20260508185901 81 105 15.0 26.0 0.00 0.03 0.03 85 1007.3
20260508185359 80 104 22.0 31.0 0.00 0.03 0.03 84 1007.3
20260508184856 81 106 22.0 34.0 0.00 0.03 0.03 83 1007.0
20260508184353 81 103 19.0 25.0 0.00 0.03 0.03 84 1007.3
20260508183849 81 113 16.0 23.0 0.00 0.03 0.03 85 1007.3
20260508183346 81 114 18.0 29.0 0.00 0.03 0.03 85 1007.0
20260508182842 81 123 14.0 21.0 0.00 0.03 0.03 84 1007.3
20260508182339 81 101 18.0 26.0 0.00 0.03 0.03 84 1007.3
20260508181834 81 102 18.0 27.0 0.00 0.03 0.03 85 1007.0
20260508181331 81 98 15.0 25.0 0.00 0.03 0.03 85 1007.0
20260508180828 81 104 14.0 22.0 0.00 0.03 0.03 85 1007.0
20260508180325 81 102 15.0 24.0 0.00 0.03 0.03 85 1006.6
20260508175821 81 94 19.0 26.0 0.00 0.03 0.03 84 1006.6
20260508175318 81 106 22.0 28.0 0.00 0.03 0.03 85 1006.6
20260508174816 81 96 18.0 26.0 0.00 0.03 0.03 85 1007.0
20260508174313 81 98 13.0 20.0 0.00 0.03 0.03 85 1007.3
20260508173809 81 91 21.0 32.0 0.00 0.03 0.03 85 1007.3
20260508173307 81 94 20.0 31.0 0.00 0.03 0.03 86 1007.3
20260508172802 80 93 21.0 27.0 0.00 0.03 0.03 86 1007.3
20260508172300 80 102 16.0 22.0 0.00 0.03 0.03 86 1007.3
20260508171756 80 98 20.0 35.0 0.00 0.03 0.03 87 1007.7
20260508171252 80 102 18.0 24.0 0.00 0.03 0.03 87 1007.7
20260508170749 80 96 23.0 32.0 0.00 0.03 0.03 86 1007.7
20260508170247 81 93 16.0 20.0 0.00 0.03 0.03 85 1007.7
20260508165744 80 90 20.0 24.0 0.00 0.03 0.03 86 1007.3
20260508165241 81 80 15.0 25.0 0.00 0.03 0.03 85 1007.0
20260508164737 81 85 20.0 29.0 0.00 0.03 0.03 84 1007.0
20260508164234 81 100 21.0 32.0 0.00 0.03 0.03 84 1007.0
20260508163732 81 94 21.0 29.0 0.00 0.03 0.03 85 1007.0
20260508163229 81 101 23.0 31.0 0.00 0.03 0.03 85 1006.6
20260508162725 80 86 15.0 20.0 0.00 0.03 0.03 86 1007.0
20260508162222 80 82 18.0 27.0 0.00 0.03 0.03 86 1007.0
20260508161719 80 88 18.0 24.0 0.00 0.03 0.03 85 1007.3
20260508161216 80 94 19.0 26.0 0.00 0.03 0.03 85 1007.3
20260508160714 81 90 21.0 26.0 0.00 0.03 0.03 85 1007.7
20260508160212 81 94 19.0 32.0 0.00 0.03 0.03 86 1007.7
20260508155709 81 93 20.0 30.0 0.00 0.03 0.03 84 1007.3
20260508155206 81 95 18.0 24.0 0.00 0.03 0.03 83 1007.3
20260508154703 81 91 26.0 37.0 0.00 0.03 0.03 84 1007.3
20260508154159 81 96 21.0 31.0 0.00 0.03 0.03 86 1007.7
20260508153656 81 91 17.0 24.0 0.00 0.03 0.03 87 1007.7
20260508153153 80 89 20.0 28.0 0.00 0.03 0.03 88 1007.7
20260508152650 80 90 20.0 32.0 0.00 0.03 0.03 88 1007.7
20260508152145 80 89 17.0 28.0 0.00 0.03 0.03 88 1008.0
20260508151642 80 101 15.0 21.0 0.00 0.02 0.02 87 1008.0
20260508151139 80 91 19.0 24.0 0.00 0.02 0.02 86 1008.0
20260508150636 80 93 16.0 22.0 0.00 0.02 0.02 86 1008.0